Regional Weather Roundup
Issued by NWS

Home | Current Version | Previous Version | Text Only | Print | Product List | Glossary On
Versions: 1 2 3 4 5 6 7 8 9 10 11 12 13 14 15 16 17 18 19 20 21 22 23 24 25 26 27 28 29 30 31 32 33 34 35 36 37 38 39 40 41 42 43 44 45 46 47 48 49 50
258
ASUS43 KDTX 030401
RWRMI
MICHIGAN HOURLY REGIONAL WEATHER ROUNDUP
NATIONAL WEATHER SERVICE DETROIT/PONTIAC MI
1200 AM EDT TUE MAY 03 2016

NOTE: "FAIR" INDICATES FEW OR NO CLOUDS BELOW 12,000 FEET WITH NO
SIGNIFICANT WEATHER AND/OR OBSTRUCTION TO VISIBILITY.

MIZ047>049-052>055-059>063-066>070-074>076-081>083-030500-
SOUTHEAST LOWER MICHIGAN

CITY           SKY/WX    TMP DP  RH WIND       PRES   REMARKS
ADRIAN         CLOUDY    48  46  93 CALM      29.98S
ALMA           CLEAR     40  39  95 W9        29.99S WCI  34
ANN ARBOR      CLOUDY    49  46  90 CALM      29.97S
BAD AXE        CLEAR     37  32  81 CALM      29.97F
CARO           CLEAR     39  35  88 CALM      29.96F
DETROIT CITY   CLEAR     46  40  79 SE5       29.99S
DETROIT        MOCLDY    49  46  90 SE6       29.98S
FLINT          CLEAR     45  40  82 CALM      29.98F
GROSSE ILE     CLOUDY    48  46  93 CALM      29.97S
HILLSDALE      CLOUDY    48  45  90 CALM      29.98S
HOWELL         CLOUDY    49  43  79 NW3       29.97S

CITY           SKY/WX    TMP DP  RH WIND       PRES   REMARKS
JACKSON        CLOUDY    48  46  93 SW3       29.97F
LAMBERTVILLE   CLOUDY    50  47  89 CALM      29.99R
LANSING        CLOUDY    47  42  83 CALM      29.98F
LAPEER         FAIR      40  38  95 CALM      29.97F
MASON          CLOUDY    49  43  79 W3        29.97F
MONROE         CLOUDY    49  47  94 CALM      29.98S
PONTIAC        PTCLDY    46  40  79 E5        29.96S
PORT HOPE        N/A     39  34  82 CALM      29.95F
TRI CITIES     CLEAR     46  32  58 N5        29.98F
MIDLAND        FAIR      38  33  82 CALM      29.97F
TROY           PTCLDY    48  42  81 CALM      30.00S
SAGINAW HB     CLEAR     43  34  70 NW5       29.96F
$$
MIZ043>046-050>051-056>058-064>065-071>073-077>080-030500-
SOUTHWEST LOWER MICHIGAN

CITY           SKY/WX    TMP DP  RH WIND       PRES   REMARKS
BATTLE CREEK   CLOUDY    48  44  86 W3        29.99F
BENTON HARBOR  CLEAR     42  38  85 CALM      30.00F
BIG RAPIDS     PTCLDY    46  35  67 CALM      29.98F
COLDWATER      CLOUDY    48  47  94 CALM      29.98F
FREMONT        FAIR      45  40  83 CALM      29.99F
HOLLAND        CLEAR     42  39  89 CALM      30.00F
GRAND RAPIDS   PTCLDY    48  42  80 W5        29.99F
IONIA          FAIR      44  40  85 W3        29.98F
KALAMAZOO      CLOUDY    49  44  83 CALM      29.99F
LUDINGTON      CLEAR     41  33  72 CALM      29.99F
MARSHALL       CLOUDY    48  45  91 CALM      29.98S
MOUNT PLEASANT   N/A     43  37  79 CALM      29.98F
MUSKEGON       CLEAR     41  37  86 CALM      30.00F
SOUTH HAVEN    CLEAR     40  39  93 CALM      29.99F
$$
MIZ016>042-030500-
NORTHERN LOWER MICHIGAN

CITY           SKY/WX    TMP DP  RH WIND       PRES   REMARKS
ALPENA         CLEAR     41  34  76 CALM      29.98F
BEAVER ISLAND  CLEAR     37  33  84 CALM      29.98F
BELLAIRE       CLEAR     40  35  83 CALM      29.99F
CADILLAC       CLEAR     41  30  65 CALM      29.98F
CHARLEVOIX     CLEAR     43  34  72 CALM      30.01S
FRANKFORT      CLEAR     40  33  75 CALM      29.98F
GAYLORD        CLEAR     43  31  62 S5        29.98F
HARBOR SPRINGS CLEAR     39  34  81 CALM      29.98F
HOUGHTON LAKE  CLEAR     41  36  82 SW3       29.99F
MANISTEE       CLEAR     39  30  70 E3        29.99F
OSCODA         CLEAR     39  30  69 CALM      29.97S
PELLSTON       CLEAR     37  30  75 CALM      29.98F
ROGERS CITY    CLEAR     44  32  63 W3        29.99F
TRAVERSE CITY  CLEAR     40  35  83 CALM      29.97F
$$
MIZ007>008-015-030500-
EASTERN UPPER MICHIGAN

CITY           SKY/WX    TMP DP  RH WIND       PRES   REMARKS
KINROSS          N/A     41  34  75 CALM      29.97S
MACKINAC ISLAN CLEAR     42  32  68 N3        29.97F
NEWBERRY       CLEAR     39  33  80 CALM      29.97F
S. S. MARIE    CLEAR     42  31  64 NW6       29.96F
MUNISING         N/A     37  31  78 S5        29.96F WCI  33
$$
MIZ004>006-011>014-085-030500-
CENTRAL UPPER MICHIGAN

CITY           SKY/WX    TMP DP  RH WIND       PRES   REMARKS
MANISTIQUE     CLEAR     41  32  69 W5        29.98F
ESCANABA       CLEAR     39  34  81 CALM      29.98F
MENOMINEE      CLEAR     45  36  70 CALM      29.98F
SAWYER-GWINN   CLEAR     40  30  67 CALM      29.97
$$
MIZ001>003-009>011-084-030500-
WESTERN UPPER MICHIGAN

CITY           SKY/WX    TMP DP  RH WIND       PRES   REMARKS
IRON MOUNTAIN  CLEAR     44  32  62 CALM      29.97F
HOUGHTON       CLEAR     40  32  73 CALM      29.94F
COPPER HARBOR    N/A     45  33  63 W5        29.94F
IRONWOOD         N/A     39  36  87 CALM      29.95F
$$

ABBREVIATIONS USED IN REMARKS
   TC - TEMPERATURE IN CELSIUS
  WCI - WIND CHILL INDEX
   HX - HEAT INDEX
  VSB - VISIBILITY





USA.gov is the U.S. government's official web portal to all federal, state and local government web resources and services.